Flag for Peru Weather past 2 weeks in Iquitos, Loreto, Peru

Now
73 °F

Partly sunny.


Feels Like: 70 °F
Forecast: 72 / 86 °F
Wind: No wind

Location: Iquitos Airport

Current Time: Aug 28, 2014 at 7:14:05 AM

Latest Report: Aug 28, 2014 at 7:00 AM


Visibility: 4 mi

Pressure: 29.95 "Hg

Humidity: 94%

Dew point: 72 °F

Location of IquitosLocation

Historic Weather in Iquitos — Graph

°F

Iquitos temperature yesterday

Maximum temperature yesterday: 86 °F (at 3:00 PM)
Minimum temperature yesterday: 72 °F (at 2:00 AM)
Average temperature yesterday: 77 °F

Past Weeks' High & Low Weather Summary

 TemperatureHumidityPressure
High91 °F (Aug 22, 2:00 PM)94% (Aug 13, 6:00 AM)30.07 "Hg (Aug 13, 6:00 AM)
Low68 °F (Aug 16, 5:00 AM)52% (Aug 16, 3:00 PM)29.71 "Hg (Aug 25, 5:00 PM)
Average78 °F84%29.91 "Hg
* Reported Aug 13 6:00 AM — Aug 28 6:00 AM, Iquitos, Weather by CustomWeather, © 2014

Note: Actual official high and low records may vary slightly from our data, if they occured in-between our weather recording intervals... More about our weather records

Advertising

Iquitos weather history for previous 24 hours

 ConditionsComfort  
Time TempWeatherWind HumidityBarometerVisibility
6:00 AM
Aug 28
73 °FMostly cloudy.No wind94%29.92 "Hg4 mi
5:00 AM73 °FPassing clouds.No wind94%29.92 "Hg4 mi
4:00 AM73 °FPassing clouds.No wind94%29.92 "Hg4 mi
3:00 AM73 °FPartly cloudy.No wind94%29.89 "Hg5 mi
2:00 AM73 °FPassing clouds.No wind94%29.92 "Hg5 mi
1:00 AM73 °FPassing clouds.No wind94%29.92 "Hg5 mi
12:00 AM73 °FPassing clouds.5 mph94%29.95 "Hg5 mi
11:00 PM
Aug 27
75 °FPassing clouds.6 mph94%29.92 "Hg4 mi
10:00 PM75 °FPassing clouds.3 mph94%29.92 "HgN/A
9:00 PM77 °FPassing clouds.No wind89%29.92 "HgN/A
8:00 PM77 °FPassing clouds.No wind89%29.89 "HgN/A
7:00 PM79 °FPassing clouds.3 mph84%29.86 "HgN/A
6:00 PM81 °FPassing clouds.3 mph79%29.83 "HgN/A
5:00 PM86 °FScattered clouds.5 mph62%29.83 "HgN/A
4:00 PM86 °FPartly sunny.3 mph62%29.83 "HgN/A
3:00 PM86 °FPartly sunny.5 mph62%29.83 "HgN/A
2:00 PM84 °FScattered clouds.5 mph66%29.86 "HgN/A
1:00 PM82 °FScattered clouds.3 mph74%29.92 "HgN/A
12:00 PM81 °FPartly sunny.2 mph74%29.95 "HgN/A
11:00 AM79 °FPartly sunny.5 mph79%29.98 "HgN/A
10:00 AM77 °FPartly sunny.7 mph83%30.01 "HgN/A
9:00 AM75 °FPartly sunny.13 mph89%29.98 "HgN/A
8:00 AM73 °FBroken clouds.No wind94%29.95 "HgN/A
7:00 AM73 °FMore clouds than sun.No wind94%29.95 "Hg5 mi
Weather by CustomWeather, © 2014

See weather overviewHow to use our weather pages